Tracking 22779 objects as of 14-Apr-2021
HD Live streaming from Space Station
objects crossing your sky now

STARLINK-1683

Track STARLINK-1683 now!
10-day predictions
STARLINK-1683 is classified as:


NORAD ID: 46578
Int'l Code: 2020-070AY
Perigee: 552.8 km
Apogee: 555.9 km
Inclination: 53.1 °
Period: 95.6 minutes
Semi major axis: 6925 km
RCS: Unknown
Launch date: October 6, 2020
Source: United States (US)
Launch site: AIR FORCE EASTERN TEST RANGE (AFETR)
aabbcc
Your satellite tracking list
Your tracking list is empty




NASA's NSSDC Master Catalog

Two Line Element Set (TLE):
1 46578U 20070AY  21103.49969761 -.00000170  00000-0  75352-5 0  9993
2 46578  53.0647 267.5522 0002295 103.3673 256.7572 15.06399863 29653
Source of the keplerian elements: AFSPC